User: anonymous   Login
Location: Trois-Rivi�res
(46.3500°N, 72.5500°W)
Time: 09:47:35
(UTC-04:00)
Language:

SJ-11-01 - Orbit

View from above orbital plane
View from above orbital plane
View from above satellite
View from above satellite

Ground track
Ground track

The orbit data is extracted from the following two-line orbital elements,

1 36088U 09061A   16275.11495873  .00000127  00000-0  36151-4 0  9990
2 36088  98.1774 321.1570 0011792   1.6627 358.4621 14.59874449366845
Epoch (UTC): 01 October 2016 02:45:32
Eccentricity: 0.0011792
inclination: 98.1774°
perigee height: 685 km
apogee height: 702 km
right ascension of ascending node: 321.1570°
argument of perigee: 1.6627°
revolutions per day: 14.59874449
mean anomaly at epoch: 358.4621°
orbit number at epoch: 36684

The dashed part of the orbit path shows where the satellite is in the earth's shadow,  

DLR